| time (UTC) | temp C | wind direction | speed KPH | gust KPH | rain 1hr cm | rain 24hr cm | rain mn cm | humidity % | barometer mb |
| 20260906200052 | 33 | 94 | 4.8 | 17.7 | 0.00 | 0.00 | 0.00 | 49 | 987.4 |
| 20260906194650 | 33 | 176 | 1.6 | 12.9 | 0.00 | 0.00 | 0.00 | 49 | 987.5 |
| 20260906193035 | 33 | 232 | 9.7 | 19.3 | 0.00 | 0.00 | 0.00 | 52 | 987.6 |
| 20260906191531 | 33 | 253 | 9.7 | 16.1 | 0.00 | 0.00 | 0.00 | 52 | 987.7 |
| 20260906190031 | 32 | 48 | 3.2 | 11.3 | 0.00 | 0.00 | 0.00 | 52 | 987.9 |
| 20260906184533 | 33 | 148 | 1.6 | 16.1 | 0.00 | 0.00 | 0.00 | 51 | 988.0 |
| 20260906183032 | 33 | 225 | 12.9 | 17.7 | 0.00 | 0.00 | 0.00 | 49 | 988.1 |
| 20260906181533 | 32 | 225 | 6.4 | 14.5 | 0.00 | 0.00 | 0.00 | 50 | 988.5 |
| 20260906180031 | 32 | 202 | 1.6 | 17.7 | 0.00 | 0.00 | 0.00 | 52 | 988.7 |
| 20260906174537 | 32 | 257 | 4.8 | 22.5 | 0.00 | 0.00 | 0.00 | 54 | 988.9 |
| 20260906173005 | 32 | 222 | 9.7 | 22.5 | 0.00 | 0.00 | 0.00 | 53 | 989.2 |
| 20260906171503 | 31 | 240 | 8.0 | 19.3 | 0.00 | 0.00 | 0.00 | 55 | 989.5 |
| 20260906170042 | 31 | 163 | 8.0 | 16.1 | 0.00 | 0.00 | 0.00 | 58 | 989.7 |
| 20260906164540 | 31 | 161 | 6.4 | 14.5 | 0.00 | 0.00 | 0.00 | 62 | 989.8 |
| 20260906163020 | 30 | 207 | 6.4 | 12.9 | 0.00 | 0.00 | 0.00 | 64 | 989.8 |
| 20260906161517 | 30 | 211 | 4.8 | 14.5 | 0.00 | 0.00 | 0.00 | 66 | 989.9 |
| 20260906160056 | 29 | 187 | 4.8 | 11.3 | 0.00 | 0.00 | 0.00 | 66 | 989.8 |
| 20260906154554 | 30 | 188 | 6.4 | 14.5 | 0.00 | 0.00 | 0.00 | 66 | 989.6 |
| 20260906153039 | 28 | 184 | 3.2 | 9.7 | 0.00 | 0.00 | 0.00 | 66 | 989.6 |
| 20260906151543 | 28 | 171 | 6.4 | 12.9 | 0.00 | 0.00 | 0.00 | 64 | 989.4 |
| 20260906150020 | 27 | 171 | 4.8 | 11.3 | 0.00 | 0.00 | 0.00 | 58 | 989.4 |
| 20260906144510 | 27 | 184 | 4.8 | 9.7 | 0.00 | 0.00 | 0.00 | 56 | 989.4 |
| 20260906143016 | 26 | 190 | 6.4 | 11.3 | 0.00 | 0.00 | 0.00 | 55 | 989.4 |
| 20260906141507 | 26 | 184 | 8.0 | 11.3 | 0.00 | 0.00 | 0.00 | 55 | 989.4 |
| 20260906140006 | 26 | 187 | 8.0 | 12.9 | 0.00 | 0.00 | 0.00 | 56 | 989.3 |
| 20260906134508 | 26 | 182 | 9.7 | 12.9 | 0.00 | 0.00 | 0.00 | 57 | 989.2 |
| 20260906133009 | 25 | 182 | 4.8 | 8.0 | 0.00 | 0.00 | 0.00 | 54 | 989.0 |
| 20260906131602 | 25 | 188 | 0.0 | 3.2 | 0.00 | 0.00 | 0.00 | 54 | 988.7 |
| 20260906130042 | 25 | 189 | 0.0 | 0.0 | 0.00 | 0.00 | 0.00 | 50 | 988.5 |
| 20260906124539 | 25 | 189 | 0.0 | 0.0 | 0.00 | 0.00 | 0.00 | 49 | 988.3 |
| 20260906123038 | 24 | 189 | 0.0 | 0.0 | 0.00 | 0.00 | 0.00 | 49 | 988.1 |
| 20260906121522 | 24 | 189 | 0.0 | 0.0 | 0.00 | 0.00 | 0.00 | 53 | 987.8 |
| 20260906120020 | 24 | 189 | 0.0 | 0.0 | 0.00 | 0.00 | 0.00 | 55 | 987.7 |
| 20260906114520 | 25 | 190 | 0.0 | 0.0 | 0.00 | 0.00 | 0.00 | 55 | 987.6 |
| 20260906113016 | 25 | 190 | 0.0 | 0.0 | 0.00 | 0.00 | 0.00 | 56 | 987.4 |
| 20260906111511 | 25 | 190 | 0.0 | 0.0 | 0.00 | 0.00 | 0.00 | 58 | 987.3 |
| 20260906110008 | 25 | 190 | 0.0 | 0.0 | 0.00 | 0.00 | 0.00 | 60 | 987.1 |
| 20260906104507 | 25 | 190 | 0.0 | 0.0 | 0.00 | 0.00 | 0.00 | 62 | 987.0 |
| 20260906103102 | 26 | 190 | 0.0 | 0.0 | 0.00 | 0.00 | 0.00 | 63 | 987.0 |
| 20260906101547 | 26 | 190 | 0.0 | 0.0 | 0.00 | 0.00 | 0.00 | 63 | 987.0 |
| 20260906100031 | 26 | 190 | 1.6 | 3.2 | 0.00 | 0.00 | 0.00 | 63 | 986.9 |
| 20260906094526 | 26 | 190 | 1.6 | 6.4 | 0.00 | 0.00 | 0.00 | 63 | 986.9 |
| 20260906093021 | 26 | 190 | 4.8 | 8.0 | 0.00 | 0.00 | 0.00 | 63 | 986.8 |
| 20260906091512 | 26 | 190 | 3.2 | 8.0 | 0.00 | 0.00 | 0.00 | 64 | 986.7 |
| 20260906090032 | 26 | 188 | 4.8 | 6.4 | 0.00 | 0.00 | 0.00 | 64 | 986.6 |
| 20260906084509 | 26 | 187 | 4.8 | 8.0 | 0.00 | 0.00 | 0.00 | 64 | 986.7 |
| 20260906083009 | 26 | 179 | 6.4 | 9.7 | 0.00 | 0.00 | 0.00 | 65 | 986.9 |
| 20260906081511 | 26 | 197 | 4.8 | 9.7 | 0.00 | 0.00 | 0.00 | 64 | 986.8 |
| 20260906080008 | 26 | 194 | 4.8 | 9.7 | 0.00 | 0.00 | 0.00 | 65 | 986.9 |
| 20260906074507 | 27 | 194 | 6.4 | 11.3 | 0.00 | 0.00 | 0.00 | 65 | 987.1 |
| 20260906073109 | 27 | 193 | 6.4 | 11.3 | 0.00 | 0.00 | 0.00 | 65 | 987.2 |
| 20260906071555 | 27 | 185 | 8.0 | 11.3 | 0.00 | 0.00 | 0.00 | 65 | 987.5 |
| 20260906070055 | 27 | 202 | 9.7 | 12.9 | 0.00 | 0.00 | 0.00 | 66 | 987.5 |
| 20260906064554 | 27 | 196 | 9.7 | 14.5 | 0.00 | 0.00 | 0.00 | 66 | 987.6 |
| 20260906063053 | 27 | 194 | 6.4 | 12.9 | 0.00 | 0.00 | 0.00 | 67 | 987.9 |
| 20260906061553 | 27 | 189 | 8.0 | 14.5 | 0.00 | 0.00 | 0.00 | 67 | 987.8 |
| 20260906060052 | 27 | 192 | 6.4 | 11.3 | 0.00 | 0.00 | 0.00 | 67 | 987.9 |
| 20260906054552 | 27 | 192 | 6.4 | 11.3 | 0.00 | 0.00 | 0.00 | 67 | 987.8 |
| 20260906053052 | 27 | 185 | 8.0 | 12.9 | 0.00 | 0.00 | 0.00 | 67 | 988.0 |
| 20260906051551 | 28 | 194 | 8.0 | 12.9 | 0.00 | 0.00 | 0.00 | 67 | 987.8 |
| 20260906050040 | 28 | 202 | 9.7 | 16.1 | 0.00 | 0.00 | 0.00 | 67 | 987.9 |
| 20260906044515 | 28 | 194 | 12.9 | 17.7 | 0.00 | 0.00 | 0.00 | 67 | 987.9 |
| 20260906043017 | 28 | 170 | 11.3 | 16.1 | 0.00 | 0.00 | 0.00 | 67 | 987.9 |
| 20260906041603 | 28 | 153 | 8.0 | 16.1 | 0.00 | 0.00 | 0.00 | 67 | 988.0 |
| 20260906040057 | 28 | 155 | 12.9 | 17.7 | 0.00 | 0.00 | 0.00 | 67 | 987.8 |
| 20260906034550 | 28 | 154 | 9.7 | 19.3 | 0.00 | 0.00 | 0.00 | 66 | 987.9 |
| 20260906033038 | 28 | 142 | 9.7 | 17.7 | 0.00 | 0.00 | 0.00 | 66 | 987.9 |
| 20260906031529 | 29 | 148 | 8.0 | 19.3 | 0.00 | 0.00 | 0.00 | 65 | 987.8 |
| 20260906030021 | 29 | 142 | 11.3 | 20.9 | 0.00 | 0.00 | 0.00 | 65 | 987.6 |
| 20260906024609 | 30 | 144 | 12.9 | 22.5 | 0.00 | 0.00 | 0.00 | 63 | 987.4 |
| 20260906023007 | 30 | 135 | 12.9 | 24.1 | 0.00 | 0.00 | 0.00 | 63 | 987.0 |
| 20260906021507 | 30 | 142 | 14.5 | 22.5 | 0.00 | 0.00 | 0.00 | 60 | 986.7 |
| 20260906020006 | 31 | 130 | 14.5 | 22.5 | 0.00 | 0.00 | 0.00 | 56 | 986.3 |
| 20260906014505 | 31 | 118 | 11.3 | 19.3 | 0.00 | 0.00 | 0.00 | 54 | 986.2 |
| 20260906013004 | 31 | 121 | 8.0 | 19.3 | 0.00 | 0.00 | 0.00 | 53 | 986.1 |
| 20260906011504 | 32 | 127 | 11.3 | 20.9 | 0.00 | 0.00 | 0.00 | 53 | 985.9 |
| 20260906010003 | 32 | 119 | 9.7 | 25.7 | 0.00 | 0.00 | 0.00 | 52 | 985.7 |
| 20260906004554 | 33 | 129 | 12.9 | 25.7 | 0.00 | 0.00 | 0.00 | 48 | 985.9 |
| 20260906003049 | 33 | 119 | 12.9 | 19.3 | 0.00 | 0.00 | 0.00 | 48 | 985.7 |
| 20260906001647 | 34 | 144 | 14.5 | 20.9 | 0.00 | 0.00 | 0.00 | 47 | 985.6 |
| 20260906000052 | 35 | 121 | 9.7 | 22.5 | 0.00 | 0.00 | 0.00 | 47 | 985.6 |
| 20260905234550 | 35 | 140 | 14.5 | 24.1 | 0.00 | 0.00 | 0.00 | 46 | 985.6 |
| 20260905233046 | 35 | 114 | 9.7 | 25.7 | 0.00 | 0.00 | 0.00 | 45 | 985.4 |
| 20260905231544 | 35 | 56 | 9.7 | 24.1 | 0.00 | 0.00 | 0.00 | 45 | 985.3 |
| 20260905230044 | 35 | 94 | 9.7 | 20.9 | 0.00 | 0.00 | 0.00 | 45 | 985.3 |
| 20260905224530 | 35 | 106 | 12.9 | 22.5 | 0.00 | 0.00 | 0.00 | 46 | 985.3 |
| 20260905223029 | 35 | 110 | 9.7 | 24.1 | 0.00 | 0.00 | 0.00 | 45 | 985.4 |
| 20260905221528 | 36 | 86 | 8.0 | 19.3 | 0.00 | 0.00 | 0.00 | 42 | 985.2 |
| 20260905220030 | 36 | 86 | 3.2 | 11.3 | 0.00 | 0.00 | 0.00 | 39 | 985.3 |
| 20260905214529 | 36 | 110 | 6.4 | 16.1 | 0.00 | 0.00 | 0.00 | 38 | 985.3 |
| 20260905213024 | 36 | 103 | 8.0 | 14.5 | 0.00 | 0.00 | 0.00 | 38 | 985.5 |
| 20260905211522 | 36 | 80 | 9.7 | 19.3 | 0.00 | 0.00 | 0.00 | 38 | 985.6 |
| 20260905210034 | 36 | 100 | 4.8 | 12.9 | 0.00 | 0.00 | 0.00 | 40 | 985.9 |
| 20260905204504 | 36 | 234 | 11.3 | 16.1 | 0.00 | 0.00 | 0.00 | 40 | 986.1 |
| 20260905203002 | 36 | 193 | 11.3 | 17.7 | 0.00 | 0.00 | 0.00 | 40 | 986.4 |
| 20260905201600 | 35 | 262 | 1.6 | 17.7 | 0.00 | 0.00 | 0.00 | 42 | 986.5 |